EW0596 Weather Reports


time (UTC)temp
C
wind
direction
speed
KPH
gust
KPH
rain 1hr
cm
rain 24hr
cm
rain mn
cm
humidity
%
barometer
mb
20260506234548 23 249 1.6 8.0 0.00 0.00 0.00 46 1009.3
20260506233102 23 205 1.6 8.0 0.00 0.00 0.00 48 1009.4
20260506231535 23 221 0.0 11.3 0.00 0.00 0.00 50 1009.5
20260506230034 23 221 1.6 6.4 0.00 0.00 0.00 47 1009.7
20260506224532 24 190 1.6 14.5 0.00 0.00 0.00 43 1009.9
20260506223028 23 240 0.0 11.3 0.00 0.00 0.00 47 1010.2
20260506221527 23 229 3.2 11.3 0.00 0.00 0.00 46 1010.4
20260506220027 24 287 4.8 14.5 0.00 0.00 0.00 44 1010.5
20260506214524 24 252 3.2 11.3 0.00 0.00 0.00 43 1010.7
20260506213023 24 209 3.2 11.3 0.00 0.00 0.00 46 1010.9
20260506211509 23 274 3.2 11.3 0.00 0.00 0.00 48 1010.9
20260506210009 23 263 1.6 12.9 0.00 0.00 0.00 47 1011.1
20260506204501 23 238 1.6 9.7 0.00 0.00 0.00 46 1011.4
20260506203058 22 246 1.6 8.0 0.00 0.00 0.00 45 1011.5
20260506201554 22 249 3.2 6.4 0.00 0.00 0.00 41 1011.9
20260506200051 21 288 1.6 8.0 0.00 0.00 0.00 41 1012.1
20260506194547 21 305 0.0 6.4 0.00 0.00 0.00 44 1012.2
20260506193047 20 355 3.2 9.7 0.00 0.00 0.00 40 1012.5
20260506191541 20 246 0.0 4.8 0.00 0.00 0.00 44 1012.7
20260506190037 20 17 0.0 4.8 0.00 0.00 0.00 44 1013.0
20260506184535 19 344 1.6 4.8 0.00 0.00 0.00 40 1013.2
20260506183036 19 265 0.0 4.8 0.00 0.00 0.00 43 1013.4
20260506181531 18 262 1.6 8.0 0.00 0.00 0.00 41 1013.4
20260506180038 18 51 0.0 4.8 0.00 0.00 0.00 40 1013.4
20260506174529 18 57 1.6 6.4 0.00 0.00 0.00 41 1013.4
20260506173014 17 43 0.0 6.4 0.00 0.00 0.00 39 1013.6
20260506171512 17 285 0.0 4.8 0.00 0.00 0.00 46 1013.9
20260506170006 16 148 1.6 8.0 0.00 0.00 0.00 44 1014.1
20260506164503 16 174 0.0 4.8 0.00 0.00 0.00 46 1014.2
20260506163121 15 65 0.0 4.8 0.00 0.00 0.00 49 1014.3
20260506161616 15 137 0.0 11.3 0.00 0.00 0.00 46 1014.3
20260506160055 14 126 1.6 6.4 0.00 0.00 0.00 48 1014.3
20260506154609 13 57 1.6 8.0 0.00 0.00 0.00 51 1014.5
20260506153046 13 99 0.0 6.4 0.00 0.00 0.00 55 1014.3
20260506151536 12 41 0.0 4.8 0.00 0.00 0.00 55 1014.5
20260506150033 12 102 1.6 4.8 0.00 0.00 0.00 57 1014.5
20260506144531 11 79 3.2 12.9 0.00 0.00 0.00 55 1014.5
20260506143040 11 51 1.6 8.0 0.00 0.00 0.00 57 1014.5
20260506141535 10 53 1.6 6.4 0.00 0.00 0.00 61 1014.4
20260506140030 10 49 1.6 6.4 0.00 0.00 0.00 61 1014.5
20260506134528 10 49 1.6 8.0 0.00 0.00 0.00 60 1014.4
20260506133014 10 78 0.0 11.3 0.00 0.00 0.00 59 1014.4
20260506131514 9 51 1.6 4.8 0.00 0.00 0.00 59 1014.2
20260506130012 9 58 1.6 11.3 0.00 0.00 0.00 59 1014.2
20260506124509 8 69 1.6 6.4 0.00 0.00 0.00 59 1014.0
20260506123008 8 55 1.6 8.0 0.00 0.00 0.00 60 1013.9
20260506121507 8 41 3.2 9.7 0.00 0.00 0.00 61 1013.7
20260506120006 9 59 1.6 6.4 0.00 0.00 0.00 60 1013.7
20260506114500 10 62 0.0 3.2 0.00 0.00 0.00 57 1013.7
20260506113047 10 65 1.6 4.8 0.00 0.00 0.00 55 1013.8
20260506111545 10 65 3.2 8.0 0.00 0.00 0.00 53 1013.8
20260506110051 10 61 1.6 11.3 0.00 0.00 0.00 53 1013.8
20260506104541 11 48 1.6 6.4 0.00 0.00 0.00 52 1013.7
20260506103040 11 67 3.2 8.0 0.00 0.00 0.00 51 1013.6
20260506101542 11 53 1.6 6.4 0.00 0.00 0.00 52 1013.6
20260506100041 11 60 1.6 6.4 0.00 0.00 0.00 52 1013.5
20260506094548 11 58 1.6 6.4 0.00 0.00 0.00 53 1013.5
20260506093028 11 57 3.2 6.4 0.00 0.00 0.00 52 1013.6
20260506091523 11 57 1.6 8.0 0.00 0.00 0.00 52 1013.5
20260506090022 11 54 3.2 8.0 0.00 0.00 0.00 53 1013.4
20260506084517 11 58 1.6 4.8 0.00 0.00 0.00 54 1013.4
20260506083014 12 61 1.6 8.0 0.00 0.00 0.00 52 1013.4
20260506081514 12 59 3.2 6.4 0.00 0.00 0.00 51 1013.2
20260506073058 8 65 1.6 4.8 0.00 0.00 0.00 67 1012.9
20260506071554 8 63 0.0 1.6 0.00 0.00 0.00 59 1012.8
20260506061541 8 32 0.0 1.6 0.00 0.00 0.00 59 1012.6
20260506044536 10 28 0.0 0.0 0.00 0.00 0.00 65 1011.6
20260506043026 10 28 0.0 3.2 0.00 0.00 0.00 65 1011.5
20260506041525 11 28 0.0 3.2 0.00 0.00 0.00 64 1011.3
20260506040048 11 29 0.0 3.2 0.00 0.00 0.00 64 1011.2
20260506034525 11 29 0.0 3.2 0.00 0.00 0.00 62 1011.1
20260506033024 11 41 0.0 1.6 0.00 0.00 0.00 61 1011.0
20260506031539 12 41 0.0 0.0 0.00 0.00 0.00 62 1010.8
20260506030012 13 41 0.0 1.6 0.00 0.00 0.00 60 1010.7
20260506024518 15 41 0.0 1.6 0.00 0.00 0.00 58 1010.6
20260506023011 17 41 0.0 3.2 0.00 0.00 0.00 55 1010.6
20260506021511 19 59 0.0 1.6 0.00 0.00 0.00 42 1010.5
20260506020009 20 59 0.0 1.6 0.00 0.00 0.00 35 1010.5
20260506014512 21 63 0.0 1.6 0.00 0.00 0.00 32 1010.4
20260506013008 21 61 0.0 1.6 0.00 0.00 0.00 33 1010.4
20260506011507 21 73 0.0 4.8 0.00 0.00 0.00 31 1010.3
20260506010058 21 67 0.0 6.4 0.00 0.00 0.00 30 1010.4
20260506004553 21 150 0.0 4.8 0.00 0.00 0.00 30 1010.5
20260506003052 22 165 0.0 1.6 0.00 0.00 0.00 31 1010.7
20260506001549 22 171 0.0 3.2 0.00 0.00 0.00 29 1010.8
20260506000049 22 142 0.0 3.2 0.00 0.00 0.00 31 1010.9